Torna al catalogo

THORAD AGENA D DEB

AttivoLEO
NORAD 21721·DEBRIS·🇺🇸 United States

Lanciato Apr 8, 1970 da Vandenberg Space Force Base

Loading…

Prossimi Passaggi (prossime 24 ore)

TLE

AggiornatoSource: Space-Track

Epoca: Sep 13, 2026, 08:11 UTC

1 21721U 70025QG  26256.34101500  .00000790  00000-0  93363-3 0  9995
2 21721 100.1154 212.4678 0006764  44.5610 110.2926 13.71392738736281

Traccia THORAD AGENA D DEB in tempo reale con AllMySat

Download on the App Store